Location: Bruderhein
(53.8035°N, 112.9265°W)
Time: 13:33:12
(UTC+00:00)

Max Valier Satellite - Visible Passes

Search period start: 01 April 2023 00:00
Search period end: 11 April 2023 00:00
Orbit: 454 x 466 km, 97.2° (Epoch: 31 March)

Date Brightness Start Highest point End Pass type
(mag) Time Alt. Az. Time Alt. Az. Time Alt. Az.
01 Apr ? 03:50:19 10° SW 03:52:43 18° W 03:55:09 10° NW visible
02 Apr ? 03:17:29 10° SSW 03:20:42 37° W 03:23:56 10° NNW visible
03 Apr ? 02:45:20 10° SSE 02:48:45 86° WSW 02:52:13 10° NNW visible
04 Apr ? 03:47:34 10° SW 03:50:04 19° W 03:52:36 10° NW visible
05 Apr ? 03:14:39 10° S 03:17:53 39° W 03:21:10 10° NNW visible
07 Apr ? 03:44:18 10° SW 03:46:55 20° W 03:49:33 10° NW visible
08 Apr ? 03:11:18 10° S 03:14:35 43° W 03:17:54 10° NNW visible
09 Apr ? 04:15:07 10° W 04:15:49 10° W 04:16:32 10° WNW visible
10 Apr ? 03:40:31 10° SW 03:43:15 22° W 03:45:59 10° NW visible
